Weather History for Beatrice, NE

Change the Weather History Date:

Wednesday, April 16, 2014

  Actual Average Record
Temperature  
Mean Temperature 53 °F -  
Max Temperature 69 °F 69 °F 89 °F (1964)
Min Temperature 37 °F 45 °F 22 °F (1953)
Degree Days  
Heating Degree Days 12    
Growing Degree Days 3 (Base 50)    
Moisture  
Dew Point 27 °F    
Average Humidity 41    
Maximum Humidity 69    
Minimum Humidity 20    
Precipitation  
Precipitation 0.00 in - - ()
Sea Level Pressure  
Sea Level Pressure 29.82 in    
Wind  
Wind Speed 22 mph (SW)    
Max Wind Speed 34 mph    
Max Gust Speed 43 mph    
Visibility 10 miles    
Events      
Averages and records for this station are not official NWS values.
T = Trace of Precipitation, MM = Missing Value Source: NWS Daily Summary

Daily Weather History Graph

Daily Weather History Graph

Search for Another Location

Airport:

Trip Planner

Search our weather history database for the weather conditions in past years. The results will help you decide how hot, cold, wet, or windy it might be!

Date:

Astronomy

Apr. 16, 2014 Rise Set
Actual Time 6:47 AM CDT 8:06 PM CDT
Civil Twilight 6:19 AM CDT 8:35 PM CDT
Nautical Twilight 5:45 AM CDT 9:09 PM CDT
Astronomical Twilight 5:09 AM CDT 9:45 PM CDT
Moon 9:52 PM CDT (4/16) 7:35 AM CDT (4/16)
Length of Visible Light 14h 16m
Length of Day
13h 19m
Full, 98% of the Moon is Illuminated
Apr 16
Full
Apr 22
Last Quarter
Apr 29
New
May 6
First Quarter
May 14
Full

Hourly Weather History & Observations

Time (CDT) Temp. Windchill Dew Point Humidity Pressure Visibility Wind Dir Wind Speed Gust Speed Precip Events Conditions
12:15 AM 50.0 °F - 21.6 °F 33% 29.83 in 10.0 mi South 17.3 mph 25.3 mph N/A   Clear
12:35 AM 49.3 °F - 21.7 °F 34% 29.83 in 10.0 mi South 19.6 mph 25.3 mph N/A   Clear
12:55 AM 48.6 °F - 21.9 °F 35% 29.82 in 10.0 mi South 21.9 mph 26.5 mph N/A   Clear
1:15 AM 48.2 °F - 22.1 °F 36% 29.81 in 10.0 mi South 18.4 mph 27.6 mph N/A   Clear
1:35 AM 47.5 °F - 22.8 °F 38% 29.81 in 10.0 mi South 20.7 mph 28.8 mph N/A   Clear
1:55 AM 47.8 °F - 22.8 °F 37% 29.80 in 10.0 mi South 23.0 mph 28.8 mph N/A   Clear
2:15 AM 47.5 °F - 23.4 °F 39% 29.80 in 10.0 mi South 21.9 mph 31.1 mph N/A   Clear
2:35 AM 47.3 °F - 23.9 °F 40% 29.78 in 10.0 mi South 20.7 mph 31.1 mph N/A   Clear
2:55 AM 47.5 °F - 23.9 °F 40% 29.78 in 10.0 mi South 21.9 mph 27.6 mph N/A   Clear
3:15 AM 47.5 °F - 23.9 °F 40% 29.77 in 10.0 mi South 18.4 mph 27.6 mph N/A   Clear
3:35 AM 47.7 °F - 23.9 °F 39% 29.77 in 10.0 mi South 18.4 mph 27.6 mph N/A   Clear
3:55 AM 48.2 °F - 23.5 °F 38% 29.77 in 10.0 mi South 19.6 mph 26.5 mph N/A   Clear
4:15 AM 48.6 °F - 23.2 °F 37% 29.76 in 10.0 mi South 21.9 mph 32.2 mph N/A   Clear
4:35 AM 48.2 °F - 23.7 °F 38% 29.76 in 10.0 mi South 20.7 mph 25.3 mph N/A   Clear
4:55 AM 47.7 °F - 23.7 °F 39% 29.76 in 10.0 mi South 20.7 mph 26.5 mph N/A   Clear
5:15 AM 47.3 °F - 23.9 °F 40% 29.75 in 10.0 mi South 19.6 mph 25.3 mph N/A   Clear
5:35 AM 47.3 °F - 24.3 °F 40% 29.75 in 10.0 mi South 17.3 mph 25.3 mph N/A   Clear
5:55 AM 46.9 °F - 24.6 °F 42% 29.74 in 10.0 mi SSE 15.0 mph 24.2 mph N/A   Clear
6:15 AM 47.3 °F - 24.3 °F 40% 29.73 in 10.0 mi SSE 13.8 mph 26.5 mph N/A   Clear
6:35 AM 47.7 °F - 23.9 °F 39% 29.72 in 10.0 mi SSE 18.4 mph 27.6 mph N/A   Clear
6:55 AM 47.5 °F - 24.1 °F 40% 29.72 in 10.0 mi SSE 17.3 mph 25.3 mph N/A   Clear
7:15 AM 48.2 °F - 23.9 °F 39% 29.73 in 10.0 mi South 23.0 mph 31.1 mph N/A   Clear
7:35 AM 49.1 °F - 23.9 °F 37% 29.74 in 10.0 mi South 17.3 mph 27.6 mph N/A   Clear
7:55 AM 50.0 °F - 23.7 °F 36% 29.74 in 10.0 mi South 26.5 mph 32.2 mph N/A   Clear
8:15 AM 50.4 °F - 23.9 °F 36% 29.75 in 10.0 mi South 18.4 mph 29.9 mph N/A   Clear
8:35 AM 50.5 °F - 23.7 °F 35% 29.74 in 10.0 mi South 26.5 mph 32.2 mph N/A   Clear
8:55 AM 51.1 °F - 24.1 °F 35% 29.74 in 10.0 mi South 21.9 mph 31.1 mph N/A   Clear
9:15 AM 52.0 °F - 24.4 °F 34% 29.74 in 10.0 mi South 23.0 mph 32.2 mph N/A   Clear
9:35 AM 53.6 °F - 23.9 °F 32% 29.73 in 10.0 mi SSW 34.5 mph 41.4 mph N/A   Clear
9:55 AM 53.8 °F - 24.4 °F 32% 29.73 in 10.0 mi South 28.8 mph 42.6 mph N/A   Clear
10:15 AM 54.0 °F - 24.4 °F 32% 29.72 in 10.0 mi SSW 33.4 mph 39.1 mph N/A   Clear
10:35 AM 55.8 °F - 25.3 °F 31% 29.72 in 10.0 mi South 34.5 mph 42.6 mph N/A   Clear
10:55 AM 57.6 °F - 25.0 °F 29% 29.73 in 10.0 mi SSW 32.2 mph 36.8 mph N/A   Clear
11:15 AM 58.5 °F - 25.5 °F 28% 29.71 in 10.0 mi South 27.6 mph 35.7 mph N/A   Clear
11:35 AM 61.2 °F - 25.3 °F 26% 29.71 in 10.0 mi SSW 28.8 mph 38.0 mph N/A   Clear
11:55 AM 61.7 °F - 23.2 °F 23% 29.72 in 10.0 mi SW 31.1 mph 42.6 mph N/A   Clear
12:15 PM 62.8 °F - 24.3 °F 23% 29.72 in 10.0 mi SSW 29.9 mph 35.7 mph N/A   Clear
12:35 PM 62.6 °F - 24.6 °F 24% 29.72 in 10.0 mi SSW 29.9 mph 36.8 mph N/A   Clear
1:15 PM 63.5 °F - 26.4 °F 25% 29.73 in 10.0 mi SSW 21.9 mph 36.8 mph N/A   Clear
1:35 PM 64.9 °F - 25.7 °F 23% 29.72 in 10.0 mi SW 27.6 mph 34.5 mph N/A   Clear
1:55 PM 67.1 °F - 26.8 °F 22% 29.71 in 10.0 mi SW 23.0 mph 28.8 mph N/A   Clear
2:15 PM 68.5 °F - 25.9 °F 20% 29.71 in 10.0 mi SW 27.6 mph 33.4 mph N/A   Clear
2:35 PM 68.5 °F - 26.2 °F 20% 29.71 in 10.0 mi SW 26.5 mph 31.1 mph N/A   Clear
2:55 PM 69.6 °F - 27.0 °F 20% 29.71 in 10.0 mi SSW 20.7 mph 32.2 mph N/A   Clear
3:15 PM 69.6 °F - 28.4 °F 22% 29.71 in 10.0 mi WSW 18.4 mph 35.7 mph N/A   Clear
3:35 PM 69.4 °F - 31.5 °F 24% 29.72 in 10.0 mi West 20.7 mph 31.1 mph N/A   Clear
3:55 PM 68.0 °F - 35.6 °F 30% 29.73 in 10.0 mi WNW 26.5 mph 31.1 mph N/A   Clear
4:15 PM 68.4 °F - 36.9 °F 31% 29.74 in 10.0 mi NW 26.5 mph 29.9 mph N/A   Clear
4:35 PM 63.5 °F - 37.0 °F 38% 29.76 in 10.0 mi WNW 25.3 mph 33.4 mph N/A   Scattered Clouds
4:55 PM 61.9 °F - 36.5 °F 39% 29.78 in 10.0 mi NW 28.8 mph 39.1 mph N/A   Scattered Clouds
5:15 PM 59.0 °F - 35.8 °F 42% 29.81 in 10.0 mi NW 31.1 mph 36.8 mph N/A   Clear
5:35 PM 55.6 °F - 35.4 °F 47% 29.83 in 10.0 mi NW 28.8 mph 38.0 mph N/A   Clear
5:55 PM 53.6 °F - 34.5 °F 48% 29.86 in 10.0 mi NNW 31.1 mph 36.8 mph N/A   Clear
6:15 PM 51.3 °F - 33.3 °F 50% 29.88 in 10.0 mi NNW 27.6 mph 34.5 mph N/A   Clear
6:35 PM 50.5 °F - 32.2 °F 49% 29.90 in 10.0 mi NNW 25.3 mph 32.2 mph N/A   Clear
6:55 PM 48.9 °F - 32.2 °F 52% 29.93 in 10.0 mi NNW 24.2 mph 34.5 mph N/A   Clear
7:15 PM 46.9 °F - 32.0 °F 56% 29.94 in 10.0 mi NW 27.6 mph 34.5 mph N/A   Clear
7:35 PM 45.1 °F 35.8 °F 31.8 °F 60% 29.96 in 10.0 mi NNW 27.6 mph 33.4 mph N/A   Clear
7:55 PM 43.7 °F 35.4 °F 31.1 °F 61% 29.97 in 10.0 mi NNW 19.6 mph 27.6 mph N/A   Clear
8:15 PM 42.6 °F 33.8 °F 30.7 °F 63% 30.00 in 10.0 mi NNW 20.7 mph 29.9 mph N/A   Clear
8:35 PM 41.0 °F 31.9 °F 30.0 °F 65% 30.02 in 10.0 mi NNW 19.6 mph 25.3 mph N/A   Clear
8:55 PM 40.3 °F 30.4 °F 29.8 °F 66% 30.03 in 10.0 mi NNW 21.9 mph 26.5 mph N/A   Clear
9:15 PM 39.7 °F 29.2 °F 29.3 °F 66% 30.05 in 10.0 mi NNW 24.2 mph 27.6 mph N/A   Clear
9:35 PM 38.7 °F 28.8 °F 29.3 °F 69% 30.07 in 10.0 mi NNW 19.6 mph 24.2 mph N/A   Scattered Clouds
9:55 PM 38.8 °F 29.1 °F 29.3 °F 69% 30.08 in 10.0 mi NNW 19.6 mph 25.3 mph N/A   Overcast
10:15 PM 38.5 °F 29.2 °F 28.9 °F 69% 30.10 in 10.0 mi North 17.3 mph - N/A   Scattered Clouds
10:35 PM 38.3 °F 29.7 °F 28.4 °F 68% 30.09 in 10.0 mi NNW 15.0 mph 21.9 mph N/A   Scattered Clouds
10:55 PM 38.1 °F 29.8 °F 28.4 °F 68% 30.11 in 10.0 mi NNW 13.8 mph - N/A   Scattered Clouds
11:15 PM 37.8 °F 29.8 °F 28.4 °F 69% 30.12 in 10.0 mi NNW 12.7 mph 18.4 mph N/A   Scattered Clouds
11:35 PM 37.4 °F 29.3 °F 27.7 °F 68% 30.12 in 10.0 mi NNW 12.7 mph - N/A   Clear
11:55 PM 37.0 °F 28.9 °F 27.5 °F 68% 30.12 in 10.0 mi NNW 12.7 mph - N/A   Scattered Clouds